Simultaneous Nadir Overpasses (SNOs) Predictions

Prediction of SNOs between GOES-15 and METOP-A Satellite Orbit:

Table of predicted SNOs for the next 14.0 days since TLE Epoch: 8/8/2012
<
Index Date Time (GOES-15) GOES-15 Lat,Lon METOP-A Lat,Lon Distance(km) Time Diff (sec)
1 08/09/2012 06:30:25 0.14,-135.01 0.19,-134.71 34.05 80
2 08/10/2012 18:46:39 -0.18,-135.09 0.78,-139.28 478.23 80
3 08/11/2012 18:28:39 -0.15,-135.10 -0.31,-134.28 92.26 80
4 08/13/2012 06:45:00 0.19,-135.04 -0.66,-138.89 439.02 80
5 08/14/2012 06:27:01 0.17,-135.04 0.43,-133.90 130.65 80
6 08/15/2012 18:43:14 -0.20,-135.11 0.53,-138.47 383.01 80
7 08/16/2012 18:25:15 -0.18,-135.11 -0.57,-133.48 186.75 80
8 08/18/2012 06:41:35 0.22,-135.04 -0.45,-138.07 344.99 80
9 08/19/2012 06:23:36
